DFKAM EDNY-LOWI

Flight info

Callsign DFKAM
Flight time 0h 38m
Altitude 3500
Route VFR
Aircraft PC12/L-SDE3/S

Departure

Time 2026-05-05 18:04
Airport Bodensee Airport Friedrichshafen (EDNY)

Arrival

Time 2026-05-05 18:42
Airport Innsbruck Airport (LOWI)
Time Latitude Longitude Altitude Speed Heading
2026-05-05 17:48 47.67219 9.51996 1363 ft 0 kts 181°
2026-05-05 17:59 47.67213 9.51991 1363 ft 1 kts 239°
2026-05-05 18:00 47.67214 9.51978 1363 ft 3 kts 302°
2026-05-05 18:00 47.67219 9.51970 1363 ft 0 kts 304°
2026-05-05 18:00 47.67220 9.51968 1363 ft 0 kts 299°
2026-05-05 18:00 47.67240 9.51961 1363 ft 7 kts 308°
2026-05-05 18:01 47.67247 9.51925 1363 ft 2 kts 258°
2026-05-05 18:01 47.67229 9.51933 1363 ft 8 kts 89°
2026-05-05 18:01 47.67288 9.52029 1363 ft 16 kts 59°
2026-05-05 18:01 47.67353 9.52196 1363 ft 18 kts 60°
2026-05-05 18:02 47.67408 9.52335 1365 ft 11 kts 50°
2026-05-05 18:02 47.67473 9.52325 1364 ft 4 kts 315°
2026-05-05 18:02 47.67500 9.52271 1364 ft 10 kts 301°
2026-05-05 18:02 47.67523 9.52155 1363 ft 15 kts 243°
2026-05-05 18:03 47.67399 9.51837 1357 ft 59 kts 241°
2026-05-05 18:03 47.67140 9.51158 1360 ft 90 kts 242°
2026-05-05 18:03 47.66812 9.50294 1504 ft 101 kts 243°
2026-05-05 18:03 47.66454 9.49388 1812 ft 102 kts 234°
2026-05-05 18:04 47.65804 9.48984 2158 ft 110 kts 178°
2026-05-05 18:04 47.65164 9.49735 2313 ft 134 kts 126°
2026-05-05 18:04 47.64589 9.51020 2300 ft 166 kts 135°
2026-05-05 18:04 47.63774 9.52423 2322 ft 191 kts 133°
2026-05-05 18:05 47.62993 9.54112 2485 ft 205 kts 129°
2026-05-05 18:05 47.62135 9.55830 2493 ft 209 kts 133°
2026-05-05 18:05 47.61351 9.57633 2564 ft 211 kts 121°
2026-05-05 18:05 47.60630 9.59559 2525 ft 214 kts 126°
2026-05-05 18:06 47.59646 9.61166 2642 ft 208 kts 143°
2026-05-05 18:06 47.59277 9.61643 2642 ft 209 kts 143°
2026-05-05 18:06 47.57825 9.63546 2727 ft 209 kts 139°
2026-05-05 18:06 47.56832 9.65118 2782 ft 210 kts 135°
2026-05-05 18:07 47.55899 9.66791 2800 ft 211 kts 131°
2026-05-05 18:07 47.54930 9.68469 2778 ft 215 kts 134°
2026-05-05 18:07 47.53946 9.70104 2842 ft 212 kts 136°
2026-05-05 18:07 47.52511 9.72112 2742 ft 215 kts 145°
2026-05-05 18:08 47.51627 9.72800 2765 ft 212 kts 165°
2026-05-05 18:08 47.50189 9.73241 2794 ft 210 kts 174°
2026-05-05 18:08 47.48741 9.73480 2813 ft 210 kts 180°
2026-05-05 18:08 47.47287 9.73487 2751 ft 213 kts 185°
2026-05-05 18:09 47.45820 9.73401 2874 ft 208 kts 187°
2026-05-05 18:09 47.44401 9.73093 2912 ft 207 kts 198°
2026-05-05 18:09 47.43072 9.72239 2855 ft 209 kts 211°
2026-05-05 18:09 47.41806 9.71170 2775 ft 212 kts 216°
2026-05-05 18:10 47.40599 9.69846 2695 ft 218 kts 223°
2026-05-05 18:10 47.39452 9.68426 2753 ft 215 kts 218°
2026-05-05 18:10 47.38213 9.67193 2772 ft 216 kts 216°
2026-05-05 18:10 47.36935 9.66005 2797 ft 215 kts 214°
2026-05-05 18:11 47.35702 9.64828 2939 ft 210 kts 214°
2026-05-05 18:11 47.34502 9.63625 3114 ft 204 kts 218°
2026-05-05 18:11 47.33422 9.62359 3386 ft 195 kts 221°
2026-05-05 18:11 47.32406 9.61072 3669 ft 190 kts 221°
2026-05-05 18:12 47.31308 9.59905 3696 ft 198 kts 215°
2026-05-05 18:12 47.30124 9.58803 3730 ft 203 kts 210°
2026-05-05 18:12 47.28807 9.58028 3723 ft 209 kts 195°
2026-05-05 18:12 47.27358 9.57971 3743 ft 211 kts 174°
2026-05-05 18:13 47.25905 9.58433 3711 ft 214 kts 163°
2026-05-05 18:13 47.24550 9.59334 3759 ft 213 kts 151°
2026-05-05 18:13 47.23317 9.60521 3849 ft 211 kts 144°
2026-05-05 18:13 47.22195 9.61910 3898 ft 211 kts 139°
2026-05-05 18:14 47.21078 9.63319 3986 ft 210 kts 143°
2026-05-05 18:14 47.20008 9.64771 4019 ft 211 kts 135°
2026-05-05 18:14 47.18968 9.66284 4119 ft 209 kts 137°
2026-05-05 18:14 47.17945 9.67804 4232 ft 206 kts 135°
2026-05-05 18:15 47.17438 9.69704 4271 ft 207 kts 92°
2026-05-05 18:15 47.17506 9.71865 4241 ft 211 kts 92°
2026-05-05 18:15 47.17355 9.74001 4286 ft 211 kts 101°
2026-05-05 18:15 47.17013 9.76090 4252 ft 215 kts 110°
2026-05-05 18:16 47.16412 9.78111 4247 ft 216 kts 122°
2026-05-05 18:16 47.15512 9.79868 4289 ft 214 kts 131°
2026-05-05 18:16 47.14589 9.81586 4249 ft 216 kts 128°
2026-05-05 18:16 47.13719 9.83382 4187 ft 220 kts 129°
2026-05-05 18:17 47.12626 9.84928 4252 ft 217 kts 148°
2026-05-05 18:17 47.11316 9.86036 4249 ft 218 kts 155°
2026-05-05 18:17 47.10036 9.87202 4325 ft 215 kts 140°
2026-05-05 18:17 47.08990 9.88778 4380 ft 214 kts 136°
2026-05-05 18:18 47.07956 9.90350 4415 ft 216 kts 136°
2026-05-05 18:18 47.06931 9.92000 4418 ft 219 kts 135°
2026-05-05 18:18 47.05811 9.93477 4369 ft 222 kts 148°
2026-05-05 18:18 47.04455 9.94542 4367 ft 219 kts 156°
2026-05-05 18:19 47.03179 9.95726 4473 ft 218 kts 143°
2026-05-05 18:19 47.02176 9.97351 4751 ft 209 kts 131°
2026-05-05 18:19 47.01279 9.98948 5099 ft 198 kts 132°
2026-05-05 18:19 47.00382 10.00468 5225 ft 201 kts 137°
2026-05-05 18:20 46.99402 10.01921 5451 ft 196 kts 138°
2026-05-05 18:20 46.98423 10.03331 5570 ft 200 kts 138°
2026-05-05 18:20 46.97557 10.04931 5784 ft 199 kts 124°
2026-05-05 18:20 46.97083 10.06766 6191 ft 190 kts 104°
2026-05-05 18:21 46.97011 10.08703 6476 ft 191 kts 91°
2026-05-05 18:21 46.97058 10.10673 6650 ft 192 kts 91°
2026-05-05 18:21 46.97074 10.12648 6813 ft 195 kts 94°
2026-05-05 18:21 46.96959 10.14642 6845 ft 201 kts 100°
2026-05-05 18:22 46.96864 10.16736 6803 ft 210 kts 93°
2026-05-05 18:22 46.97164 10.18882 6630 ft 224 kts 71°
2026-05-05 18:22 46.97806 10.20996 6428 ft 233 kts 69°
2026-05-05 18:22 46.98441 10.23144 6367 ft 228 kts 71°
2026-05-05 18:23 46.99150 10.25195 6335 ft 224 kts 61°
2026-05-05 18:23 47.00057 10.27028 6255 ft 220 kts 53°
2026-05-05 18:23 47.01066 10.28678 6154 ft 216 kts 48°
2026-05-05 18:23 47.02114 10.30241 6060 ft 214 kts 49°
2026-05-05 18:24 47.03137 10.31792 6137 ft 211 kts 48°
2026-05-05 18:24 47.04134 10.33373 6063 ft 210 kts 51°
2026-05-05 18:24 47.05082 10.35054 5831 ft 218 kts 56°
2026-05-05 18:24 47.05930 10.36903 5793 ft 217 kts 63°
2026-05-05 18:25 47.06643 10.38870 5721 ft 221 kts 72°
2026-05-05 18:25 47.06960 10.40296 5667 ft 224 kts 77°
2026-05-05 18:25 47.07502 10.43292 5573 ft 228 kts 78°
2026-05-05 18:25 47.08087 10.45452 5564 ft 229 kts 63°
2026-05-05 18:26 47.09147 10.47222 5514 ft 236 kts 41°
2026-05-05 18:26 47.10506 10.48545 5675 ft 232 kts 34°
2026-05-05 18:26 47.11661 10.49742 5794 ft 226 kts 41°
2026-05-05 18:26 47.12781 10.51359 5851 ft 227 kts 56°
2026-05-05 18:27 47.13613 10.53326 5868 ft 228 kts 60°
2026-05-05 18:27 47.14468 10.55228 6029 ft 224 kts 57°
2026-05-05 18:27 47.15350 10.57071 6329 ft 216 kts 57°
2026-05-05 18:27 47.16215 10.58874 6461 ft 220 kts 58°
2026-05-05 18:28 47.17902 10.62851 6317 ft 232 kts 60°
2026-05-05 18:28 47.18695 10.64894 6413 ft 228 kts 64°
2026-05-05 18:28 47.19422 10.66980 6339 ft 231 kts 66°
2026-05-05 18:29 47.20095 10.69122 6335 ft 230 kts 69°
2026-05-05 18:29 47.20673 10.71299 6337 ft 228 kts 75°
2026-05-05 18:29 47.21030 10.73570 6292 ft 228 kts 82°
2026-05-05 18:29 47.21263 10.75865 6336 ft 224 kts 85°
2026-05-05 18:30 47.21480 10.78080 6555 ft 216 kts 84°
2026-05-05 18:30 47.21685 10.80261 6640 ft 215 kts 85°
2026-05-05 18:30 47.21927 10.82446 6637 ft 218 kts 82°
2026-05-05 18:30 47.22164 10.84626 6726 ft 214 kts 84°
2026-05-05 18:31 47.22368 10.86763 6783 ft 214 kts 86°
2026-05-05 18:31 47.22465 10.88984 6624 ft 222 kts 91°
2026-05-05 18:31 47.22589 10.91307 6589 ft 225 kts 86°
2026-05-05 18:31 47.22855 10.93538 6611 ft 225 kts 82°
2026-05-05 18:32 47.23013 10.95814 6658 ft 221 kts 97°
2026-05-05 18:32 47.22539 10.97901 6837 ft 214 kts 124°
2026-05-05 18:32 47.21643 10.99527 6990 ft 191 kts 124°
2026-05-05 18:32 47.21293 11.01313 7083 ft 183 kts 89°
2026-05-05 18:33 47.21743 11.03103 7050 ft 191 kts 69°
2026-05-05 18:33 47.22233 11.04924 6888 ft 191 kts 82°
2026-05-05 18:33 47.22118 11.06699 6874 ft 168 kts 119°
2026-05-05 18:33 47.21354 11.08007 6436 ft 170 kts 139°
2026-05-05 18:34 47.20608 11.09362 6132 ft 171 kts 125°
2026-05-05 18:34 47.20323 11.11027 5884 ft 172 kts 92°
2026-05-05 18:34 47.20286 11.12783 5616 ft 170 kts 112°
2026-05-05 18:34 47.19926 11.14424 5355 ft 170 kts 109°
2026-05-05 18:35 47.19916 11.16099 5261 ft 166 kts 81°
2026-05-05 18:35 47.20370 11.17761 5156 ft 178 kts 68°
2026-05-05 18:35 47.20964 11.19374 5048 ft 178 kts 65°
2026-05-05 18:35 47.21614 11.20897 4814 ft 175 kts 58°
2026-05-05 18:36 47.22434 11.22233 4452 ft 179 kts 44°
2026-05-05 18:36 47.23429 11.23384 4060 ft 183 kts 41°
2026-05-05 18:36 47.24469 11.24506 3595 ft 186 kts 40°
2026-05-05 18:36 47.25320 11.25785 3404 ft 174 kts 67°
2026-05-05 18:37 47.25525 11.27448 3219 ft 162 kts 91°
2026-05-05 18:37 47.25557 11.29087 3037 ft 159 kts 88°
2026-05-05 18:37 47.25672 11.30737 3045 ft 162 kts 87°
2026-05-05 18:37 47.25771 11.32397 3141 ft 161 kts 91°
2026-05-05 18:38 47.25811 11.34021 3392 ft 155 kts 98°
2026-05-05 18:38 47.25328 11.35245 3773 ft 136 kts 161°
2026-05-05 18:38 47.24498 11.34929 3966 ft 132 kts 225°
2026-05-05 18:38 47.24086 11.33658 3936 ft 150 kts 258°
2026-05-05 18:39 47.24049 11.32056 3931 ft 157 kts 271°
2026-05-05 18:39 47.24072 11.30485 3749 ft 154 kts 270°
2026-05-05 18:39 47.24188 11.28946 3549 ft 147 kts 282°
2026-05-05 18:39 47.24616 11.27633 3354 ft 137 kts 320°
2026-05-05 18:40 47.25476 11.27381 3085 ft 132 kts 22°
2026-05-05 18:40 47.25951 11.28350 2867 ft 111 kts 98°
2026-05-05 18:40 47.25770 11.29373 2635 ft 99 kts 112°
2026-05-05 18:40 47.25660 11.30332 2413 ft 91 kts 104°
2026-05-05 18:41 47.25689 11.31223 2244 ft 90 kts 89°
2026-05-05 18:41 47.25798 11.32099 2117 ft 84 kts 92°
2026-05-05 18:41 47.25878 11.32939 1986 ft 79 kts 95°
2026-05-05 18:41 47.25946 11.33681 1905 ft 63 kts 91°
2026-05-05 18:42 47.25973 11.33990 1903 ft 12 kts 79°
2026-05-05 18:42 47.25998 11.34182 1900 ft 25 kts 79°
2026-05-05 18:42 47.26027 11.34458 1899 ft 27 kts 81°
2026-05-05 18:42 47.26056 11.34708 1902 ft 25 kts 82°
2026-05-05 18:43 47.26097 11.34830 1904 ft 13 kts
2026-05-05 18:43 47.26163 11.34831 1900 ft 2 kts
2026-05-05 18:43 47.26200 11.34822 1893 ft 6 kts 302°
2026-05-05 18:43 47.26201 11.34767 1904 ft 8 kts 264°
2026-05-05 18:44 47.26203 11.34731 1904 ft 2 kts 317°
2026-05-05 18:44 47.26217 11.34725 1901 ft 1 kts 350°
2026-05-05 18:44 47.26223 11.34724 1902 ft 0 kts 351°
2026-05-05 18:44 47.26224 11.34724 1902 ft 0 kts 351°
2026-05-05 18:45 47.26226 11.34723 1903 ft 0 kts 351°